RH
68 67 66 66 64 64 63 61 60 58 57 54 52 50 49 50 48 45 43 42 41 39 38 36 35 34 33 33 35 37 38 38 38 38 38 37 36 35 34 33 37 42 47 53 58 61 62 61 59 55 51 48 48 50 53 56 58 59 61 62 64 64 64 63 62 61 60 58 57
67 66 66 66 65 64 63 62 60 58 56 53 51 51 51 49 45 43 41 40 39 38 38 37 36 35 35 34 35 37 39 39 39 39 39 38 37 36 34 34 39 46 54 61 63 64 64 63 62 57 52 49 50 54 59 63 64 65 65 65 66 65 64 63 62 61 60 59 58
66 66 66 65 64 64 63 63 62 60 58 55 52 51 49 47 44 42 40 40 39 39 38 38 38 37 35 34 35 37 39 40 40 40 40 39 38 37 35 35 41 50 59 65 65 65 63 62 60 56 52 50 54 59 64 66 66 66 66 66 66 65 64 63 62 61 61 60 58
66 65 65 65 64 63 62 62 62 61 59 54 51 48 47 45 44 43 42 40 40 39 39 39 39 38 37 36 37 38 39 40 41 41 40 40 39 38 36 35 42 52 62 66 66 64 61 58 55 52 50 50 55 61 65 65 66 66 66 66 66 65 64 63 63 63 62 61 59
65 65 65 64 63 62 61 61 62 61 59 54 51 49 47 46 45 44 43 42 41 41 40 40 40 40 40 40 41 41 41 41 41 41 41 40 40 38 37 36 41 51 61 67 66 64 61 57 54 51 49 50 55 60 64 66 65 65 64 64 64 64 64 64 64 64 63 62 59
64 65 66 65 64 63 62 62 62 61 58 54 52 50 49 47 47 46 45 44 43 42 42 42 42 43 45 46 45 45 44 44 43 43 42 42 41 39 38 36 39 46 55 63 65 64 64 65 60 54 51 51 55 59 62 65 66 66 65 63 63 64 65 65 65 64 63 61 58
63 64 65 65 65 63 62 61 60 58 56 54 53 51 49 48 47 47 46 45 46 45 45 45 47 49 50 51 50 49 48 47 46 45 44 43 42 41 39 38 38 42 47 53 58 62 65 67 65 59 54 54 57 60 62 65 65 66 66 66 66 66 65 65 64 63 61 59 55
60 61 61 61 61 60 60 59 59 58 56 55 53 52 50 49 48 48 47 47 48 49 49 50 52 54 55 54 53 52 51 50 49 48 46 45 43 42 40 39 40 41 43 45 48 55 62 66 66 62 57 56 59 62 64 65 65 66 67 68 67 66 65 64 63 61 60 57 54
57 58 57 56 56 57 58 58 59 59 58 56 54 53 52 50 50 49 49 49 50 52 53 54 56 58 58 57 56 54 53 52 51 50 48 46 44 43 42 41 41 42 42 43 45 51 59 67 67 63 58 56 59 63 65 66 67 66 67 67 66 65 64 63 62 61 60 58 57
56 56 56 55 55 56 57 58 59 59 58 56 55 54 53 52 51 51 51 51 52 54 56 58 60 60 61 59 58 57 56 54 53 52 50 48 46 44 43 43 43 43 43 44 46 50 56 63 65 64 62 60 61 63 65 66 67 67 67 66 65 65 64 63 63 62 61 60 60
56 56 56 56 56 57 57 58 58 58 56 55 54 54 54 54 54 53 53 53 54 56 58 60 61 62 62 61 60 59 58 56 55 53 51 50 48 47 46 45 45 45 45 46 49 52 56 60 64 66 67 65 64 63 63 64 65 66 67 66 65 65 64 64 64 63 63 62 61
55 55 56 56 57 57 58 58 57 55 53 52 53 54 55 56 56 56 55 55 56 58 59 61 61 61 61 62 61 60 59 58 56 55 53 51 50 49 48 47 46 46 47 49 51 53 56 60 66 69 70 68 65 63 61 61 62 64 66 66 65 64 63 63 64 64 65 63 62
54 54 55 56 56 57 56 56 54 52 51 50 52 54 56 58 58 58 57 56 58 59 61 61 61 60 60 61 61 60 59 58 57 56 54 53 52 50 49 49 48 48 49 51 52 54 57 62 67 70 70 67 64 62 61 61 64 67 68 68 66 64 64 64 65 66 67 66 65
53 53 53 54 54 54 54 53 51 50 49 49 51 53 55 57 58 57 57 57 59 60 62 61 60 60 59 60 60 60 59 59 58 57 55 54 53 52 51 50 50 50 51 52 53 55 58 63 68 70 69 67 65 64 65 67 69 71 71 71 70 69 69 68 68 69 70 70 69
52 52 52 52 52 52 51 50 49 48 47 48 50 51 52 53 54 54 55 56 59 60 61 60 60 59 59 59 59 59 58 58 58 57 57 56 55 54 53 52 52 53 53 54 54 56 59 63 67 69 70 70 70 71 72 73 73 73 73 73 74 74 73 72 71 71 70 70 68
52 52 52 51 50 50 49 48 47 46 46 47 47 48 48 49 49 51 53 56 58 58 59 59 59 59 59 59 58 58 58 58 58 57 57 56 56 55 55 55 54 55 55 55 56 57 59 62 65 68 72 74 75 75 76 75 75 74 74 74 75 75 75 74 73 72 69 66 63
52 52 51 50 50 49 48 47 46 45 44 45 45 45 45 46 47 50 52 54 55 56 56 57 57 58 58 57 57 57 57 57 57 57 57 57 57 57 56 56 56 56 57 57 58 59 60 61 65 70 74 76 76 76 76 75 74 73 73 73 74 74 74 73 73 71 67 63 59
52 51 51 50 49 49 48 47 45 44 43 43 43 43 44 45 47 49 50 51 52 52 53 54 55 56 56 56 56 56 56 56 57 57 57 57 57 57 57 58 58 58 58 59 59 60 60 62 67 73 77 76 76 75 74 73 71 70 69 71 73 73 73 72 71 69 66 62 58
51 51 51 50 49 48 47 46 45 43 42 42 42 43 44 45 46 47 47 48 48 49 51 51 52 53 54 55 55 55 56 56 56 56 57 57 57 58 58 58 59 59 59 60 60 60 61 63 70 75 78 77 75 74 72 71 69 68 68 70 72 73 72 71 69 67 64 60 57
52 51 51 50 49 48 47 46 45 44 43 43 43 43 44 44 44 44 45 45 47 48 49 49 51 52 53 53 54 54 55 55 56 56 57 57 58 58 59 59 59 60 60 61 61 61 62 64 70 75 78 77 75 73 71 69 69 70 71 72 72 72 70 68 65 62 59 56 54
53 52 51 50 49 49 48 47 46 45 45 44 44 44 43 43 42 43 44 45 46 46 48 52 55 55 54 52 53 53 54 55 56 56 57 57 58 58 59 59 59 60 60 61 61 61 62 63 67 70 73 74 72 70 68 66 67 69 70 69 68 66 64 61 58 56 53 51 50
55 53 52 51 50 50 49 48 48 46 46 45 44 43 43 42 42 43 44 44 45 48 54 62 64 61 56 52 52 52 53 55 56 57 57 58 58 58 58 58 58 58 58 58 58 57 56 57 59 61 64 66 65 63 61 59 60 62 63 63 62 59 57 55 53 52 50 48 46
58 56 54 52 51 51 50 49 49 47 46 45 44 44 43 43 43 43 43 43 46 54 63 68 68 64 59 53 51 51 52 53 55 56 57 57 56 56 56 56 56 55 54 53 51 50 49 50 51 52 54 56 56 55 53 51 53 55 57 58 57 56 54 53 51 49 47 45 44
62 60 57 55 53 52 51 51 50 49 48 47 46 45 44 43 43 43 42 43 51 60 66 68 68 65 60 53 51 51 52 53 55 57 57 56 54 54 54 54 53 53 53 52 50 49 48 48 48 48 49 50 50 49 47 46 48 50 53 55 55 54 53 51 48 47 46 46 46
66 64 61 58 56 54 52 52 51 50 49 48 47 45 44 44 43 42 43 46 56 63 66 68 67 64 59 54 51 51 52 54 57 59 59 57 56 55 55 55 56 57 59 59 57 56 54 52 51 50 49 48 47 46 45 45 46 47 50 52 52 52 50 48 47 47 47 47 46
69 68 65 62 59 56 54 53 52 51 50 49 47 46 45 44 43 42 45 51 60 64 66 66 66 63 58 54 53 54 56 60 65 65 64 61 60 58 58 59 62 66 68 67 65 63 61 59 57 55 53 51 49 48 47 46 46 47 48 49 49 49 48 47 47 46 45 45 45
71 70 68 65 62 59 56 54 53 52 50 49 47 46 45 44 42 43 47 55 61 63 64 64 63 60 56 53 54 58 62 66 67 66 65 61 58 55 55 57 63 68 69 68 66 65 64 63 62 60 57 55 52 50 49 48 47 47 47 46 46 46 46 46 46 46 45 46 47
72 72 70 68 65 61 58 55 53 51 49 48 47 46 45 44 44 45 50 57 61 62 62 61 59 55 52 49 52 56 61 63 62 61 58 54 50 49 50 53 59 63 65 65 65 64 64 63 61 59 57 54 52 51 49 48 47 47 46 46 46 47 47 47 47 48 48 48 49
72 72 71 69 66 63 60 56 53 51 49 49 49 49 49 49 49 52 56 62 64 65 64 61 57 53 49 46 47 49 52 54 53 51 49 47 46 46 47 50 56 60 63 64 64 62 61 58 57 56 55 54 53 52 51 50 50 50 50 51 51 51 50 49 49 48 47 47 47
73 73 72 70 68 65 62 58 56 55 54 55 55 56 56 56 58 61 63 65 66 66 66 63 60 56 53 50 48 48 48 48 48 48 48 48 49 50 51 53 57 60 62 63 61 59 58 57 57 57 57 56 55 55 55 55 55 55 55 54 52 51 49 47 45 44 44 43 43
78 77 75 74 72 70 67 65 64 64 64 64 63 63 63 63 64 65 65 65 65 66 65 65 64 64 62 61 60 59 58 58 58 58 58 58 58 59 60 62 63 64 64 63 62 61 61 61 61 60 60 59 58 58 58 58 57 55 53 50 48 46 44 42 42 41 41 41 41
81 80 79 79 78 77 76 74 74 73 72 70 68 68 67 68 68 68 68 68 68 68 69 69 70 71 71 69 69 69 69 70 70 70 70 69 69 69 69 69 69 69 68 66 65 65 64 64 63 61 60 59 58 57 56 54 52 49 47 45 43 42 41 41 40 41 41 41 40
79 79 79 78 78 78 79 79 78 77 76 77 77 78 78 77 74 74 74 75 74 74 74 74 74 74 74 73 73 74 75 76 76 75 74 73 72 72 71 70 70 69 68 66 66 65 64 63 61 60 58 56 53 51 50 48 46 44 43 42 41 41 40 41 41 41 41 40 40
76 77 77 76 75 75 76 77 76 77 78 81 81 82 82 80 80 80 80 81 81 81 80 77 77 76 76 76 75 75 75 76 76 75 74 73 72 71 70 69 68 67 65 64 62 61 60 58 56 54 52 50 48 47 45 44 44 43 42 42 42 42 41 41 41 41 40 39 38
76 77 77 76 74 73 73 75 75 76 78 80 79 79 79 78 81 81 81 82 83 83 82 81 79 77 75 74 74 74 75 77 76 74 73 71 70 69 68 67 65 63 61 60 59 57 55 53 52 50 48 47 46 45 45 44 44 44 43 43 43 42 42 41 40 39 37 36 34
81 80 79 78 76 75 74 75 75 76 77 77 76 76 77 77 79 80 80 80 81 81 81 81 79 78 77 76 75 75 76 76 75 73 70 68 68 67 65 64 62 60 59 57 55 54 52 51 49 48 47 47 46 46 46 46 45 44 44 44 43 42 41 39 37 35 33 32 31
84 83 81 80 78 78 77 77 76 76 75 74 72 72 72 73 75 76 76 76 76 77 77 78 78 78 77 77 76 75 75 74 72 71 69 67 66 65 64 64 62 60 58 56 54 53 51 51 49 49 48 48 49 48 47 46 45 44 43 42 40 38 36 34 33 32 31 29 29
82 82 81 80 79 79 78 78 76 75 73 71 69 68 68 69 70 71 72 72 72 73 73 74 74 74 74 73 73 72 71 70 69 68 67 67 66 66 66 66 65 63 60 58 56 54 53 51 50 50 50 51 51 49 48 46 44 42 40 38 36 35 33 32 31 30 29 28 27
75 77 78 79 78 77 76 75 73 72 70 68 67 67 67 67 67 68 69 70 70 71 71 72 72 72 71 71 70 70 69 68 68 67 68 69 70 70 70 70 69 67 66 64 62 59 57 53 51 50 49 49 48 46 44 43 42 40 38 36 35 34 33 31 30 29 28 26 25
67 69 71 72 72 71 70 68 67 67 67 66 67 67 67 67 67 68 68 69 70 70 71 72 73 73 72 71 70 70 70 70 70 69 69 70 72 72 72 71 70 69 67 65 65 63 61 56 51 48 46 45 44 42 40 40 40 39 38 36 35 33 32 31 29 28 27 25 24
62 63 64 64 65 64 64 63 63 63 64 65 65 66 66 67 67 67 68 69 69 70 71 72 73 73 73 72 72 71 71 71 70 70 70 71 72 72 71 69 67 65 63 60 59 59 58 56 50 45 42 41 40 40 39 38 38 37 36 35 33 32 31 29 28 27 26 25 24